Regional Weather Roundup
Issued by NWS

Home | Current Version | Previous Version | Graphics & Text | Print | Product List | Glossary Off
Versions: 1 2 3 4 5 6 7 8 9 10 11 12 13 14 15 16 17 18 19 20 21 22 23 24 25 26 27 28 29 30 31 32 33 34 35 36 37 38 39 40 41 42 43 44 45 46 47 48 49 50

000
ASUS43 KMPX 230410
RWRMN
WEATHER ROUNDUP FOR MINNESOTA
NATIONAL WEATHER SERVICE TWIN CITIES/CHANHASSEN MN
1100 PM CDT SAT JUL 22 2017


NOTE: "FAIR" INDICATES FEW OR NO CLOUDS BELOW 12,000 FEET WITH NO
SIGNIFICANT WEATHER AND/OR OBSTRUCTIONS TO VISIBILITY. N/A MEANS
CURRENT SKY AND/OR WEATHER CONDITIONS ARE NOT AVAILABLE.

MNZ060>063-068>070-230500-
   Twin Cities Metro

CITY           SKY/WX    TMP DP  RH WIND       PRES   REMARKS
TWIN CITIES    CLEAR     79  60  52 W5        29.84S
ST PAUL        CLEAR     76  62  62 CALM      29.84S
CRYSTAL        CLEAR     72  60  66 CALM      29.83S
BLAINE         CLEAR     73  63  68 CALM      29.84S
LAKEVILLE      CLEAR     68  63  83 CALM      29.86R
EDEN PRAIRIE   CLEAR     76  58  53 NW3       29.84S
SOUTH ST PAUL  CLEAR     78  60  53 CALM      29.84S
LAKE ELMO      FAIR      68  64  88 CALM      29.85S
$$
MNZ001>005-007-008-013>017-022>024-027-028-230500-
   Northwest Minnesota

CITY           SKY/WX    TMP DP  RH WIND       PRES   REMARKS
BEMIDJI        CLEAR     62  56  80 W6        29.87S
HALLOCK        PTCLDY    63  61  94 NW6       29.88R
ROSEAU         CLEAR     61  55  82 W7        29.86R
WARROAD        PTCLDY    61  55  82 NW3       29.86S
THIEF RVR FALL MOCLDY    61  61 100 NW9       29.89S
CROOKSTON      PTCLDY    64  61  88 N9        29.90R
FOSSTON        MOCLDY    61  57  88 W9        29.90R
DETROIT LAKES  CLEAR     64  57  77 NW9       29.92R
MOORHEAD       CLEAR     64  57  77 NW6       29.91R
PARK RAPIDS    PTCLDY    63  56  78 W7        29.88R
MAHNOMEN       FAIR      61  57  87 NW7       29.89S
$$
MNZ006-009>011-018-025>026-230500-
   North Central Minnesota

CITY           SKY/WX    TMP DP  RH WIND       PRES   REMARKS
BAUDETTE       CLOUDY    62  61  96 NW9       29.83R
FLAG ISLAND    CLEAR     64  61  88 N8        29.83R FOG
INTL FALLS     CLOUDY    62  60  93 W3        29.82R
WASKISH        CLEAR     64  61  88 NW12      29.85R
BIG FORK       CLEAR     61  57  88 CALM      29.84R
LONGVILLE      CLOUDY    66  57  72 W3        29.85S
GRAND RAPIDS   CLOUDY    69  56  62 NW12      29.86R
CRANE LAKE     MOCLDY    63  57  82 CALM      29.82F
ORR            HVY RAIN  64  57  77 NW9G18    29.80R
COOK           CLOUDY    64  59  82 N3        29.82S
WALKER         FAIR      64  56  76 NW7       29.87R
$$
MNZ012-019>021-037-230500-
   Northeast Minnesota

CITY           SKY/WX    TMP DP  RH WIND       PRES   REMARKS
DULUTH         MOCLDY    54  54 100 E6        29.84R
ELY            RAIN      63  61  94 E8        29.82S
HIBBING        CLOUDY    66  54  65 W6        29.82S
EVELETH        CLOUDY    68  46  45 W6        29.83S
DULUTH HARBOR  CLOUDY    59  55  88 NE7       29.85R
TWO HARBORS    CLEAR     55  52  88 CALM      29.83R
GRAND MARAIS     N/A     57  54  89 CALM      29.82S
G MARAIS ARPRT CLOUDY    55  50  82 N9        29.85S
$$
MNZ029>031-032-039>041-046>048-054>057-064-230500-
   West Central Minnesota

CITY           SKY/WX    TMP DP  RH WIND       PRES   REMARKS
FERGUS FALLS   MOCLDY    70  57  64 N10       29.89R
WHEATON        CLEAR     70  61  73 NW6       29.91R
MORRIS         CLEAR     72  61  68 N7        29.88R
ALEXANDRIA     MOCLDY    69  61  75 NW6       29.90R
ELBOW LAKE     MOCLDY    71  62  72 N7        29.90R
WADENA         PTCLDY    68  55  64 NW8       29.89R
GLENWOOD       CLEAR     68  61  77 NW6       29.89S
APPLETON       CLEAR     70  64  83 CALM      29.87R
BENSON         CLEAR     66  63  88 N3        29.89R
ORTONVILLE     CLEAR     72  64  78 N8        29.88R
MADISON        CLEAR     73  66  78 CALM      29.86S
WILLMAR        FAIR      72  66  83 CALM      29.88R
$$
MNZ033>034-036-042>043-049>051-058-059-230500-
   Central Minnesota

CITY           SKY/WX    TMP DP  RH WIND       PRES   REMARKS
ST CLOUD       MOCLDY    66  63  90 CALM      29.85R
SAUK CENTRE    FAIR      67  62  84 CALM      29.89R
PAYNESVILLE    CLEAR     64  61  89 CALM      29.88R
AITKIN         MOCLDY    61  55  82 SW3       29.84S
PINE RIVER     CLOUDY    68  55  64 W3        29.90S
BRAINERD       CLOUDY    71  54  54 NW7       29.86R
STAPLES        CLOUDY    68  54  60 N6        29.88R
LONG PRAIRIE   MOCLDY    68  59  73 CALM      29.89R
LITTLE FALLS   PTCLDY    64  57  77 CALM      29.87R
LITCHFIELD     CLEAR     70  64  83 CALM      29.87S
BUFFALO        CLEAR     69  61  75 CALM      29.86S
MAPLE LAKE     CLEAR     67  63  87 CALM      29.87R
HUTCHINSON     CLEAR     66  65  96 CALM      29.87F
$$
MNZ037-044-045-052-053-230500-
   East Central Minnesota

CITY           SKY/WX    TMP DP  RH WIND       PRES   REMARKS
PRINCETON      PTCLDY    64  63  94 CALM      29.85S
MORA           CLEAR     63  57  82 CALM      29.86S
CAMBRIDGE      CLEAR     68  57  68 CALM      29.83S
RUSH CITY      CLEAR     64  60  88 CALM      29.84S
MOOSE LAKE     PTCLDY    61  55  82 NW3       29.82S
HINCKLEY       FAIR      68  57  68 CALM      29.84S
CLOQUET        FOG       57  54  88 E5        29.84S VSB 1/4
MCGREGOR       MOCLDY    68  54  60 CALM      29.84F
$$
MNZ071>073-080-081-089-090-097-098-230500-
   Southwest Minnesota

CITY           SKY/WX    TMP DP  RH WIND       PRES   REMARKS
MONTEVIDEO     CLEAR     70  63  78 CALM      29.86S
GRANITE FALLS  CLEAR     71  67  84 CALM      29.88R
CANBY          CLEAR     74  62  65 CALM      29.88R
MARSHALL       CLEAR     71  64  78 SW7       29.88S
REDWOOD FALLS  CLEAR     72  67  84 S5        29.86S
OLIVIA         CLEAR     70  64  83 CALM      29.86S
PIPESTONE      CLEAR     72  66  83 N3        29.93R
WINDOM         CLEAR     72  64  78 CALM      29.90F
WORTHINGTON    CLEAR     69  63  81 W5        29.92F
JACKSON        CLEAR     70  64  83 CALM      29.91F
SLAYTON        CLEAR     71  62  74 CALM      29.93R
$$
MNZ065>067-074>077-082>085-091>093-230500-
   South Central Minnesota

CITY           SKY/WX    TMP DP  RH WIND       PRES   REMARKS
MANKATO        CLEAR     75  67  76 CALM      29.88R
NEW ULM        CLEAR     73  66  78 CALM      29.88R
ST JAMES       CLEAR     73  72  94 CALM      29.89S
FAIRMONT       CLEAR     73  70  90 CALM      29.89S
GLENCOE        CLEAR     70  67  90 CALM      29.86S
FARIBAULT      CLEAR     72  64  78 W3        29.87S
OWATONNA       CLEAR     72  68  88 CALM      29.88S
WASECA         CLEAR     68  64  88 CALM      29.89S
ALBERT LEA     CLEAR     72  70  94 CALM      29.90R
$$
MNZ078>079-086>088-094>096-230500-
   Southeast Minnesota

CITY           SKY/WX    TMP DP  RH WIND       PRES   REMARKS
ROCHESTER      CLEAR     72  70  93 NW8       29.88R
RED WING       CLEAR     73  63  68 CALM      29.83S
STANTON        CLEAR     70  65  86 CALM      29.85R
DODGE CENTER   CLEAR     73  64  73 W7        29.89R
WINONA         CLEAR     70  68  94 CALM      29.84R
AUSTIN         CLEAR     73  68  83 NW5       29.88R
PRESTON        CLEAR     70  67  90 NW5       29.88R
$$
ABBREVIATIONS USED IN REMARKS
   TC - TEMPERATURES IN CELSIUS
  WCI - WIND CHILL INDEX
   HX - HEAT INDEX
  VSB - VISIBILITY
$$



USA.gov is the U.S. government's official web portal to all federal, state and local government web resources and services.